NOAA 16 DEB, 41655

Orbit data source: Space-Track

NOAA 16 DEB, 41655 is space debris in SSO originally from a launch on Thu, 21 Sep 2000 UTC launched from the Air Force Western Test Range (AFWTR). Debris objects in space refer to the collection of defunct objects orbiting the Earth. Examples of debris include non-operational satellites, rocket bodies, and fragments generated from explosions, collisions, or faulty payload assembly.

Loading next visibility...
Identifier
41655, 2000-055NU
Orbit
SSO
Country
Flag of USUS
Related business
Manufacturer
Unknown
Mission
Spacecraft
Bus & Motor
Unknown
Mass
Unknown
Launch date (UTC)
2000-09-21 (25 years ago)
Launch vehicle
Unknown
Launch site
Air Force Western Test Range (AFWTR)
Object type
Payload
Rocket body
Debris
Shape & HBR
Unknown shape, 0.1 m
Radar Cross Section
Small (<0.1 m²)

Expand to show TLE details & history
Last TLE update: 8 hours ago

TLE from 8 hours ago
0 NOAA 16 DEB
1 41655U 00055NU  25352.52855587  .00004532  00000-0  15739-2 0  9994
2 41655  98.7224  89.3816 0016453 305.5777  54.3875 14.35948945501407
Epoch: 2025-12-18T12:41Z
TLE epoch observation values (Epoch: 2025-12-18T12:41:07.227Z)
Latitude
0.00006°
Longitude
171.71871°
Altitude
768.012 km
Speed
7.474 km/s
True Right ascension
05h 57m 31s
True Declination
0° 00' 00"
Sunlit
Object was in full shadow at epoch
Visualization orbit readout
Latitude
Unknown
Longitude
Unknown
Altitude
Unknown
Speed
Unknown
Apparent Right ascension
Unknown
Apparent Declination
Unknown
Sunlit
N/A
Visualization observer readout
Local Sidereal Time
19:57:11
Azimuth
Unknown
Elevation
Unknown
Doppler factor
Unknown
Orbital elements
Apogee altitude
780.812 km
Perigee altitude
757.293 km
Semi-major axis
7,147.189 km
Eccentricity
0.00165
Inclination
98.7224°
RAAN
89.3816°
Arg. of periapsis
305.5777°
True anomaly
54.54096°
Mean anomaly
54.3875°
Eccentric anomaly
54.46421°
Mean motion
3.59203 °/min
Orbital period
100.22 mins
BSTAR
0.0015739
Loading maneuver chart data...
Computing Atmospheric mass density...

Documentation

Showing up to 5 results
|